Location: Corralito
(14.1667°N, 87.1833°W)
Time: 20:14:01
(UTC+00:00)

USA 229 DEB - Pass Details

Date: 07 June 2020
Orbit: 983 x 1229 km, 63.4° (Epoch: 24 June)

Event Time Altitude Azimuth Distance (km) Brightness Sun altitude
Rises 08:26:41 0° 342° (NNW) 4,063 7.0 -36.3°
Reaches altitude 10° 08:29:27 10° 346° (NNW) 3,125 6.4 -35.8°
Maximum altitude 08:36:53 59° 65° (ENE) 1,391 4.4 -34.5°
Drops below altitude 10° 08:44:26 10° 143° (SE) 3,178 6.1 -33.1°
Sets 08:47:15 0° 147° (SSE) 4,136 6.7 -32.6°
